Flag for U.S.A. Weather past 2 weeks in Myrtle Beach, South Carolina, U.S.A.

Now
73 °F

Passing clouds.


Feels Like: 72 °F
Forecast: 76 / 87 °F
Wind: No wind

Location: Myrtle Beach Air Force Base

Current Time: Jul 26, 2014 at 7:58:06 AM

Latest Report: Jul 26, 2014 at 6:50 AM


Visibility: 10 mi

Pressure: 30.01 "Hg

Humidity: 89%

Dew point: 70 °F

Location of Myrtle BeachLocation

Historic Weather in Myrtle Beach — Graph

°F

Myrtle Beach temperature yesterday

Maximum temperature yesterday: 82 °F (at 11:53 AM)
Minimum temperature yesterday: 73 °F (at 1:15 AM)
Average temperature yesterday: 77 °F

Past Weeks' High & Low Weather Summary

 TemperatureHumidityPressure
High93 °F (Jul 24, 1:45 PM)94% (Jul 11, 8:55 AM)30.22 "Hg (Jul 11, 8:55 AM)
Low70 °F (Jul 17, 6:45 AM)47% (Jul 24, 3:45 PM)29.82 "Hg (Jul 15, 9:45 PM)
Average78 °F81%30.04 "Hg
* Reported Jul 11 5:15 AM — Jul 26 5:55 AM, Myrtle Beach, Weather by CustomWeather, © 2014

Note: Actual official high and low records may vary slightly from our data, if they occured in-between our weather recording intervals... More about our weather records

Advertising

Myrtle Beach weather history for previous 24 hours

 ConditionsComfort  
Time TempWeatherWind HumidityBarometerVisibility
5:55 AM
Jul 26
73 °FPassing clouds.3 mph89%30.01 "Hg10 mi
5:35 AM73 °FPassing clouds.3 mph89%30.00 "Hg10 mi
5:15 AM73 °FPassing clouds.No wind89%30.01 "Hg10 mi
4:55 AM73 °FPassing clouds.3 mph89%30.00 "Hg10 mi
4:35 AM75 °FOvercast.No wind89%29.99 "Hg10 mi
4:15 AM73 °FMostly cloudy.No wind89%29.99 "Hg10 mi
3:55 AM73 °FMostly cloudy.3 mph89%29.99 "Hg10 mi
3:35 AM73 °FPassing clouds.5 mph89%29.99 "Hg10 mi
3:15 AM73 °FPassing clouds.No wind89%30.00 "Hg10 mi
2:55 AM73 °FOvercast.No wind89%30.00 "Hg10 mi
2:35 AM73 °FPassing clouds.No wind89%30.00 "Hg10 mi
2:15 AM73 °FPassing clouds.No wind94%30.01 "Hg10 mi
1:55 AM73 °FPassing clouds.No wind94%30.00 "Hg10 mi
1:35 AM73 °FClear.No wind94%30.01 "Hg10 mi
12:55 AM73 °FPassing clouds.No wind94%30.02 "Hg9 mi
12:35 AM73 °FPassing clouds.No wind94%30.02 "Hg10 mi
12:15 AM73 °FPassing clouds.No wind94%30.02 "Hg9 mi
11:55 PM
Jul 25
75 °FClear.No wind89%30.02 "Hg10 mi
11:35 PM75 °FPassing clouds.No wind89%30.03 "Hg10 mi
10:55 PM75 °FPassing clouds.5 mph89%30.06 "Hg10 mi
9:45 PM75 °FClear.5 mph89%30.03 "Hg7 mi
8:45 PM77 °FScattered clouds.5 mph89%30.01 "Hg7 mi
7:50 PM79 °FScattered clouds.5 mph84%30.00 "Hg7 mi
6:45 PM79 °FScattered clouds.No wind84%29.99 "Hg10 mi
4:47 PM81 °FFog.7 mph84%29.99 "Hg5 mi
3:45 PM79 °FFog.8 mph84%30.01 "Hg3 mi
3:04 PM82 °FThunderstorms. Partly sunny.9 mph74%30.03 "Hg2 mi
1:45 PM82 °FPartly sunny.12 mph79%30.01 "Hg7 mi
12:50 PM82 °FPartly sunny.7 mph74%30.03 "Hg7 mi
11:53 AM82 °FOvercast.7 mph74%30.04 "Hg7 mi
10:45 AM81 °FOvercast.8 mph79%30.03 "Hg10 mi
9:45 AM81 °FPartly sunny.7 mph79%30.03 "Hg10 mi
8:45 AM79 °FScattered clouds.7 mph84%30.00 "Hg10 mi
7:45 AM75 °FSunny.No wind94%29.98 "Hg8 mi
Weather by CustomWeather, © 2014

See weather overviewHow to use our weather pages